{"data":{"norad_id":66185,"intl_designator":"2025-243J","name":"STARLINK-35377","alt_names":[],"object_type":"PAYLOAD","status":"ACTIVE","operator":null,"country":"US","launch_date":"2025-10-26","launch_site_code":"AFETR","launch_vehicle":null,"mission":null,"orbit_class":"UNKNOWN","rcs_meters":null,"size_class":null,"mass_kg":null,"dimensions":null,"purposes":["comms"],"wikipedia_slug":null,"has_3d_model":false,"image_url":null,"decayed_at":null,"tle_current":{"epoch":"2026-09-20T13:56:03.183360Z","epoch_age_seconds":93462,"freshness":"FRESH","line1":"1 66185U 25243J   26263.58059240  .00021238  00000+0  63757-3 0  9990","line2":"2 66185  53.1592  57.0869 0000963  27.7041 332.4013 15.34417533 50532","mean_motion":15.34417533,"eccentricity":9.63e-5,"inclination_deg":53.1592,"raan_deg":57.0869,"arg_perigee_deg":27.7041,"mean_anomaly_deg":332.4013,"bstar":0.00063757,"rev_number":5053,"period_min":93.846685731269,"perigee_km":461.99236103559,"apogee_km":463.30989682922,"semimajor_km":6840.7881289324,"source":"CELESTRAK","updated_at":"2026-09-21T09:00:35.834932Z"}}}